Home > Weather > Adamstown > Past weeks

Flag for Pitcairn Islands Past Weather in Adamstown, Pitcairn Islands — Yesterday and Last 2 Weeks

Now
69 °F

Overcast.


Feels Like: 69 °F
Forecast: 68 / 71 °F
Wind: 14 mph from Southeast

Location: Rikitea

Current Time: Jul 24, 2016 at 10:34:00 AM

Latest Report: Jul 24, 2016 at 9:00 AM


Visibility: 16 mi

Pressure: 30.15 "Hg

Humidity: 75%

Dew Point: 60 °F

Location of AdamstownLocation

Past Weather in Adamstown — Graph

°F

Adamstown Temperature Yesterday

Maximum temperature yesterday: 74 °F (at 11:00 AM)
Minimum temperature yesterday: 67 °F (at 5:00 PM)
Average temperature yesterday: 70 °F

High & Low Weather Summary for the Past Weeks

 TemperatureHumidityPressure
High77 °F (Jul 18, 1:00 PM)95% (Jul 23, 4:00 PM)30.29 "Hg (Jul 23, 4:00 PM)
Low66 °F (Jul 10, 3:00 AM)54% (Jul 10, 2:00 PM)30.02 "Hg (Jul 9, 3:00 PM)
Average71 °F75%30.14 "Hg
* Reported Jul 9 9:00 AM — Jul 24 9:00 AM, Adamstown, Weather by CustomWeather, © 2016

Note: Actual official high and low records may vary slightly from our data, if they occured in-between our weather recording intervals... More about our weather records

Advertising

Adamstown Weather History for the Previous 24 Hours

Scroll right to see more
 ConditionsComfort  
Time TempWeatherWind HumidityBarometerVisibility
9:00 AM
Sun, Jul 24
69 °FOvercast.14 mph75%30.15 "Hg16 mi
8:00 AM69 °FOvercast.13 mph76%30.14 "Hg16 mi
7:00 AM68 °FOvercast.13 mph78%30.13 "Hg16 mi
6:00 AM68 °FMild.13 mph80%30.11 "HgN/A
5:00 AM68 °FMild.13 mph82%30.11 "HgN/A
4:00 AM67 °FMild.12 mph84%30.12 "HgN/A
3:00 AM67 °FMild.13 mph86%30.14 "HgN/A
2:00 AM68 °FMild.13 mph85%30.14 "HgN/A
1:00 AM68 °FMild.15 mph85%30.14 "HgN/A
12:00 AM68 °FMild.14 mph86%30.14 "HgN/A
11:00 PM
Sat, Jul 23
68 °FMild.12 mph82%30.15 "HgN/A
10:00 PM68 °FMild.12 mph81%30.15 "HgN/A
9:00 PM68 °FMild.14 mph81%30.14 "HgN/A
8:00 PM67 °FMild.13 mph86%30.13 "HgN/A
7:00 PM67 °FMild.13 mph88%30.11 "HgN/A
6:00 PM68 °FOvercast.15 mph90%30.11 "Hg7 mi
5:00 PM67 °FLight rain. Overcast.13 mph94%30.09 "Hg6 mi
4:00 PM68 °FLight rain. Low clouds.16 mph95%30.09 "Hg4 mi
3:00 PM69 °FLow clouds.16 mph94%30.09 "Hg7 mi
2:00 PM71 °FLow clouds.7 mph85%30.11 "Hg4 mi
1:00 PM74 °FOvercast.3 mph64%30.12 "Hg6 mi
12:00 PM74 °FOvercast.2 mph65%30.14 "Hg25 mi
11:00 AM74 °FOvercast.3 mph65%30.15 "Hg25 mi
10:00 AM73 °FScattered clouds.3 mph65%30.16 "Hg25 mi
Weather by CustomWeather, © 2016

See weather overviewHow to use our weather pages